#timestamp,LO_Frequency,Hit,StdDev 
1605873615.2,286047000.8,N
1605873635.1,286047001.1,N
1605873636.0,286047001.1,N
1605873655.8,286047000.8,N
1605873675.6,286047000.3,N
1605873695.5,286046998.2,N
1605873715.3,286047002.2,N
1605873735.2,286047001.8,N
1605873755.9,286047003.9,Y
1605873775.7,286047001.5,P
1605873795.6,286047001.8,P
1605873815.4,286047002.8,P
1605873835.2,286047002.3,N
1605873855.1,286047001.5,N
1605873856.0,286047001.5,N
1605873875.8,286047004.0,Y
1605873895.7,286046998.6,P
1605873915.5,286046999.6,N
1605873935.3,286046995.2,P
1605873955.2,286046993.3,N
1605873975.0,286046993.3,N
1605873975.9,286046993.3,N
1605873995.8,286046991.9,N
1605874015.6,286046994.8,N
1605874035.4,286046994.3,N
1605874055.3,286046993.1,N
1605874075.1,286046993.6,N
1605874095.8,286046993.4,N
1605874115.7,286046992.0,N
1605874135.5,286046991.1,Y
1605874155.4,286046994.6,P
1605874175.2,286046992.2,P
1605874195.0,286046992.5,P
1605874195.9,286046992.5,Y
1605874215.8,286046996.7,P
1605874235.6,286046997.9,N
1605874255.4,286046997.8,N
1605874275.3,286046995.4,N
1605874295.1,286046994.9,Y
1605874315.9,286047000.1,P
1605874335.7,286047000.5,N
1605874355.5,286047001.2,N
1605874375.4,286046999.4,N
1605874395.2,286046997.3,N
1605874415.0,286046997.9,N
1605874415.9,286046997.9,N
1605874435.8,286046997.6,N
1605874455.6,286046993.5,Y
1605874475.5,286046993.5,P
1605874495.3,286046993.7,N
1605874515.1,286046994.6,N
1605874535.9,286046991.7,Y
1605874555.7,286046999.0,P
1605874575.6,286046998.3,N
1605874595.4,286046998.1,N
1605874615.2,286046999.0,N
1605874635.1,286046998.5,N
1605874636.0,286046998.5,N
1605874655.8,286046998.6,N
1605874675.6,286046999.4,N
1605874695.5,286046999.4,N
1605874715.3,286046999.6,N
1605874735.2,286046999.6,N
1605874755.9,286046999.1,N
1605874775.7,286046999.0,N
1605874795.6,286046998.9,N
1605874815.4,286046997.3,N
1605874835.2,286046996.9,N
1605874855.1,286046999.0,N
1605874856.0,286046999.0,N
1605874875.8,286046999.4,N
1605874895.7,286046997.4,N
1605874915.5,286046997.7,N
1605874935.3,286046996.7,Y
1605874955.2,286046999.3,P
1605874975.0,286046999.3,N
1605874975.9,286046999.3,N
1605874995.8,286046996.5,Y
1605875015.6,286046998.5,P
1605875035.4,286046998.1,P
1605875055.3,286047000.7,N
1605875075.1,286046998.4,N
1605875095.9,286047001.2,N
1605875115.7,286047000.9,N
1605875135.5,286047000.3,N
1605875155.4,286047000.8,N
1605875175.2,286047000.9,N
1605875195.0,286047000.1,N
1605875195.9,286047000.1,N
1605875215.8,286047000.9,N
1605875235.6,286047000.9,N
1605875255.5,286047001.1,N
1605875275.3,286047000.9,N
1605875295.1,286047000.8,N
1605875315.9,286047001.3,N
1605875335.7,286047003.9,Y
1605875355.6,286047002.0,P
1605875375.4,286047002.2,N
1605875395.2,286047001.4,N
1605875445.1,286047003.9,E
1605875455.0,286047002.2,N
1605875455.9,286047002.2,P
1605875475.7,286047001.0,P
1605875495.6,286047002.6,Y
1605875515.4,286047001.1,P
1605875535.3,286047001.1,P
1605875555.1,286046998.6,P
1605875556.0,286046998.6,N
1605875575.8,286046998.1,N
1605875595.7,286047001.2,N
1605875615.5,286046999.2,N
1605875635.4,286046996.7,N
1605875655.2,286046997.2,N
1605875675.0,286046999.4,N
1605875675.9,286046999.4,N
1605875695.8,286046997.1,N
1605875715.6,286046999.1,N
1605875735.4,286046999.1,N
1605875755.3,286046997.0,N
1605875775.1,286046997.4,N
1605875795.9,286046995.3,Y
1605875815.7,286046999.1,P
1605875835.5,286046998.9,P
1605875855.4,286047001.1,P
1605875875.2,286047001.0,N
1605875895.0,286047000.8,N
1605875895.9,286047000.8,N
1605875915.8,286047000.9,N
1605875935.6,286046998.3,N
1605875955.5,286046999.0,N
1605875975.3,286046999.5,N
1605875995.1,286046999.4,N
1605876015.9,286046999.6,N
1605876035.7,286046996.6,Y
1605876055.5,286046998.8,P
1605876075.4,286046999.4,N
1605876095.2,286046996.5,P
1605876115.1,286046999.0,N
1605876116.0,286046999.0,N
1605876135.8,286046998.8,N
1605876155.6,286046998.9,N
1605876175.5,286046998.8,N
1605876195.3,286046996.5,Y
1605876215.1,286046998.4,P
1605876235.9,286046999.5,N
1605876255.7,286046996.5,P
1605876275.6,286046998.8,N
1605876295.4,286047000.8,N
1605876315.2,286047002.8,N
1605876335.1,286046999.7,N
1605876336.0,286046999.7,N
1605876355.8,286047002.5,N
1605876375.6,286047002.6,N
1605876395.5,286047002.6,N
1605876415.3,286047002.5,N
1605876435.2,286047002.5,N
1605876455.9,286047000.2,N
1605876475.7,286047000.0,N
1605876495.6,286047000.7,N
1605876515.4,286047000.3,N
1605876535.2,286047000.9,N
1605876555.1,286047000.4,N
1605876556.0,286047000.4,N
1605876575.8,286046999.8,N
1605876595.7,286046999.8,N
1605876615.5,286047002.8,N
1605876635.3,286046999.8,N
1605876655.2,286047000.2,N
1605876675.0,286047000.2,N
1605876675.9,286047000.2,N
1605876695.7,286047002.3,N
1605876715.6,286047002.1,N
1605876735.4,286047001.9,N
1605876755.3,286046999.7,N
1605876775.1,286046999.8,N
1605876776.0,286046999.8,N
1605876795.8,286047002.6,N
1605876815.7,286047002.2,N
1605876835.5,286047002.3,N
1605876855.3,286047002.3,N
1605876875.2,286046999.8,N
1605876895.0,286046999.7,N
1605876895.9,286046999.7,N
1605876915.8,286047002.8,N
1605876935.6,286047002.4,N
1605876955.4,286047001.6,N
1605876975.3,286047001.7,N
1605876995.1,286047001.6,N
1605877015.8,286047002.6,N
1605877035.7,286047002.0,N
1605877055.5,286047002.3,N
1605877075.4,286047001.8,N
1605877095.2,286047001.4,N
1605877115.0,286047003.9,Y
1605877115.9,286047003.9,P
1605877135.8,286047000.3,N
1605877155.6,286046998.5,N
1605877175.4,286046999.8,N
1605877195.3,286047000.1,N
